Regional Weather Roundup
Issued by NWS Kansas City/Pleasant Hill, MO

Home | Current Version | Previous Version | Graphics & Text | Print | Product List | Glossary Off
Versions: 1 2 3 4 5 6 7 8 9 10 11 12 13 14 15 16 17 18 19 20 21 22 23 24 25 26 27 28 29 30 31 32 33 34 35 36 37 38 39 40 41 42 43 44 45 46 47 48 49 50

000
ASUS43 KEAX 301004
RWREAX

WEATHER ROUNDUP FOR EASTERN KANSAS AND NORTHWEST MISSOURI
NATIONAL WEATHER SERVICE KANSAS CITY/PLEASANT HILL MO
500 AM CDT THU OCT 30 2014

KSZ040-057-103>105-MOZ028-029-037-043-301100-
...KANSAS CITY METROPOLITAN AREA...

CITY           SKY/WX    TMP DP  RH WIND       PRES   REMARKS
K.C. INTL      PTCLDY    49  39  68 S13       30.00F
K.C. DOWNTOWN  PTCLDY    49  37  63 S8        30.02F
LEES SUMMIT    CLEAR     48  36  63 S9        30.04S
OLATHE - IXD   PTCLDY    47  39  74 S8        30.03F
OLATHE - OJC   PTCLDY    47  39  74 S8        30.02F
LAWRENCE       MOCLDY    48  40  73 SE7       30.01F

$$

MOZ001>008-011>017-020>025-030>033-038>040-044>046-053-054-301100-
...NORTHERN AND CENTRAL MISSOURI...

CITY           SKY/WX    TMP DP  RH WIND       PRES   REMARKS
ST. JOSEPH     CLOUDY    49  38  65 SE8       29.99F
MOSBY            N/A     45  36  70 SE7       30.02F
WHITEMAN AFB   CLEAR     44  34  68 S6        30.05F
CLINTON        CLEAR     46  37  71 CALM      30.08S
SEDALIA        CLEAR     42  34  73 SE8       30.08F
WARSAW         NOT AVBL
MARSHALL       PTCLDY    41  36  81 E6        30.09S
CHILLICOTHE      N/A     45  35  68 SE3       30.07F
MOBERLY        PTCLDY    43  32  65 SE6       30.10S
KIRKSVILLE     PTCLDY    38  35  89 SE7       30.09F WCI  33

$$

MOZ041-047>049-056>058-063>065-088>090-097-301100-
...EASTERN AND SOUTHERN MISSOURI...

CITY           SKY/WX    TMP DP  RH WIND       PRES   REMARKS
ST. LOUIS INTL PTCLDY    39  35  86 E6        30.15S WCI  35
SPIRIT OF STL  PTCLDY    34  33  96 CALM      30.15R
COLUMBIA       PTCLDY    40  34  79 SE9       30.10F WCI  34
JEFFERSON CITY CLEAR     37  35  92 SE6       30.12F WCI  32
MEXICO         FAIR      39  39 100 SE6       30.11F WCI  35
ROLLA          CLEAR     44  32  62 SE10      30.10F
LEBANON        CLEAR     41  34  75 S6        30.11S
OSAGE BEACH    CLEAR     39  30  70 SE6       30.10S WCI  35
SPRINGFIELD    CLEAR     44  35  70 S10       30.10F
BRANSON        CLEAR     46  36  66 CALM      30.13F
NEVADA         PTCLDY    45  37  76 S7        30.08S
JOPLIN         CLEAR     48  38  68 S9        30.09F
WEST PLAINS    CLEAR     36  32  85 CALM      30.15S

$$

IAZ060-094-KSZ022-034>040-054-083-096-NEZ052-066-093-301100-
...KANSAS...SOUTHEAST NEBRASKA AND IOWA...

CITY           SKY/WX    TMP DP  RH WIND       PRES   REMARKS
TOPEKA         CLOUDY    51  40  65 S5        29.99F
MANHATTAN      CLOUDY    56  36  47 SW10      29.97S
EMPORIA        MOCLDY    49  39  68 S9        30.01F
CHANUTE        CLEAR     48  41  76 S8        30.06S
WICHITA        MOCLDY    48  36  63 S7        30.03F
OMAHA          PTCLDY    45  33  63 S6        29.99F
LINCOLN        PTCLDY    43  36  76 NW8       30.01R
FALLS CITY     MOCLDY    44  37  76 CALM      29.99R
LAMONI         CLOUDY    44  34  67 SE10      30.02F
DES MOINES     CLOUDY    44  34  67 E6        30.04F

$$




USA.gov is the U.S. government's official web portal to all federal, state and local government web resources and services.